This is the latest recevied weather packets stored in our database for station/object W4SKW. If no packets are shown the sender has not sent any weather packets the latest 10 day(s).
| Time | Temp. | Humidity | Pressure | Rain* | Wind** | Luminosity | Snow |
|---|---|---|---|---|---|---|---|
| 1778029555 | 19.44° C | 69% | 1013.5 hPa | 0 mm | - | 0 W/m² | - |
| 1778029250 | 19.44° C | 71% | 1013.6 hPa | 0 mm | - | 0 W/m² | - |
| 1778028948 | 19.44° C | 70% | 1013.6 hPa | 0 mm | - | 0 W/m² | - |
| 1778028643 | 19.44° C | 66% | 1013.5 hPa | 0 mm | - | 0 W/m² | - |
| 1778028341 | 19.44° C | 66% | 1013.5 hPa | 0 mm | - | 0 W/m² | - |
| 1778028037 | 19.44° C | 66% | 1013.5 hPa | 0 mm | - | 0 W/m² | - |
| 1778027734 | 19.44° C | 70% | 1013.5 hPa | 0 mm | - | 0 W/m² | - |
| 1778027430 | 19.44° C | 69% | 1013.5 hPa | 0 mm | - | 1 W/m² | - |
| 1778027120 | 20° C | 67% | 1013.3 hPa | 0 mm | - | 1 W/m² | - |
| 1778026816 | 20° C | 64% | 1013.3 hPa | 0 mm | - | 3 W/m² | - |
| 1778026513 | 20° C | 64% | 1013.4 hPa | 0 mm | - | 8 W/m² | - |
| 1778026210 | 20° C | 65% | 1013.5 hPa | 0 mm | - | 9 W/m² | - |
| 1778025908 | 20.56° C | 63% | 1013.4 hPa | 0 mm | - | 12 W/m² | - |
| 1778025605 | 20.56° C | 64% | 1013.4 hPa | 0 mm | - | 13 W/m² | - |
| 1778025303 | 20.56° C | 62% | 1013.5 hPa | 0 mm | - | 16 W/m² | - |
| 1778024999 | 20.56° C | 62% | 1013.5 hPa | 0 mm | - | 23 W/m² | - |
| 1778024697 | 21.11° C | 62% | 1013.6 hPa | 0 mm | - | 27 W/m² | - |
| 1778024393 | 21.11° C | 60% | 1013.5 hPa | 0 mm | - | 28 W/m² | - |
| 1778024091 | 21.11° C | 62% | 1013.5 hPa | 0 mm | - | 31 W/m² | - |
| 1778023787 | 21.11° C | 61% | 1013.7 hPa | 0 mm | - | 38 W/m² | - |
| 1778023064 | 22.22° C | 60% | 1013.8 hPa | 0 mm | - | 63 W/m² | - |
| 1778022764 | 22.22° C | 60% | 1013.8 hPa | 0 mm | - | 63 W/m² | - |
| 1778022461 | 22.22° C | 64% | 1013.5 hPa | 0 mm | - | 61 W/m² | - |
| 1778022157 | 22.78° C | 59% | 1013.7 hPa | 0 mm | - | 63 W/m² | - |
| 1778021854 | 22.78° C | 61% | 1013.5 hPa | 0 mm | - | 87 W/m² | - |
* Rain latest hour (hover to see other rain measurements)
** Current wind speed in m/s (hover to see current wind gust speed)